User: anonymous   Login
Location: Croydon
(51.3762°N, 0.0982°W)
Time: 11:33:58
(UTC+00:00)
Language:

Courier 1B Rocket - Orbit

View from above orbital plane
View from above orbital plane
View from above satellite
View from above satellite

Ground track
Ground track

The orbit data is extracted from the following two-line orbital elements,

1    59U 60013B   19316.28986545 +.00000095 +00000-0 +51518-5 0  9990
2    59 028.2486 258.8587 0189221 255.0359 102.9167 13.52971899917031
Epoch (UTC): 12 November 2019 06:57:24
Eccentricity: 0.0189221
inclination: 28.2486°
perigee height: 920 km
apogee height: 1202 km
right ascension of ascending node: 258.8587°
argument of perigee: 255.0359°
revolutions per day: 13.52971899
mean anomaly at epoch: 102.9167°
orbit number at epoch: 91703

The dashed part of the orbit path shows where the satellite is in the earth's shadow,  

DLR